Flag for Comoros Weather past 2 weeks in Mutsamudu, Comoros

Now
82 °F

Broken clouds.


Feels Like: 85 °F
Forecast: 75 / 79 °F
Wind: 8 mph from South

Location: Dzaoudzi / Pamanzi Mayotte

Current Time: Oct 23, 2014 at 6:15:01 PM

Latest Report: Oct 23, 2014 at 5:00 PM


Visibility: N/A

Pressure: 29.92 "Hg

Humidity: 62%

Dew point: 68 °F

Location of MutsamuduLocation

Historic Weather in Mutsamudu — Graph

°F

Mutsamudu temperature yesterday

Maximum temperature yesterday: 86 °F (at 11:00 AM)
Minimum temperature yesterday: 77 °F (at 12:00 AM)
Average temperature yesterday: 81 °F

Past Weeks' High & Low Weather Summary

 TemperatureHumidityPressure
High88 °F (Oct 10, 1:00 PM)94% (Oct 15, 5:00 AM)30.07 "Hg (Oct 15, 5:00 AM)
Low73 °F (Oct 15, 4:30 AM)49% (Oct 14, 1:00 PM)29.83 "Hg (Oct 17, 2:00 AM)
Average80 °F74%29.95 "Hg
* Reported Oct 8 5:00 PM — Oct 23 5:00 PM, Mutsamudu, Weather by CustomWeather, © 2014

Note: Actual official high and low records may vary slightly from our data, if they occured in-between our weather recording intervals... More about our weather records

Advertising

Mutsamudu weather history for previous 24 hours

 ConditionsComfort  
Time TempWeatherWind HumidityBarometerVisibility
5:00 PM
Oct 23
82 °FBroken clouds.8 mph62%29.92 "HgN/A
4:30 PM82 °FBroken clouds.8 mph62%29.92 "HgN/A
4:00 PM82 °FPartly sunny.6 mph62%29.92 "HgN/A
3:30 PM82 °FScattered clouds.6 mph62%29.92 "HgN/A
3:00 PM86 °FPassing clouds.6 mph55%29.92 "HgN/A
2:00 PM84 °FScattered clouds.6 mph62%29.92 "HgN/A
1:37 PM84 °FPassing clouds.3 mph58%29.92 "HgN/A
1:00 PM86 °FPassing clouds.6 mph55%29.95 "HgN/A
12:30 PM84 °FPassing clouds.7 mph58%29.95 "HgN/A
12:00 PM84 °FPassing clouds.8 mph58%29.98 "HgN/A
11:30 AM84 °FPassing clouds.8 mph62%29.98 "HgN/A
11:00 AM86 °FPassing clouds.8 mph59%29.98 "HgN/A
10:30 AM86 °FPassing clouds.7 mph55%29.98 "HgN/A
10:00 AM84 °FPassing clouds.7 mph58%30.01 "HgN/A
9:30 AM84 °FPassing clouds.6 mph58%30.01 "HgN/A
9:00 AM82 °FPassing clouds.5 mph62%30.01 "HgN/A
8:30 AM82 °FPassing clouds.6 mph62%30.01 "HgN/A
8:00 AM82 °FPassing clouds.6 mph66%30.01 "HgN/A
7:30 AM81 °FPassing clouds.6 mph66%29.98 "HgN/A
7:00 AM81 °FPassing clouds.6 mph70%29.98 "HgN/A
6:30 AM79 °FScattered clouds.6 mph74%29.98 "HgN/A
6:00 AM79 °FScattered clouds.7 mph70%29.95 "HgN/A
5:30 AM77 °FScattered clouds.7 mph74%29.95 "HgN/A
5:00 AM77 °FPassing clouds.9 mph74%29.95 "HgN/A
4:30 AM77 °FPassing clouds.10 mph74%29.92 "HgN/A
4:00 AM77 °FPartly cloudy.9 mph79%29.92 "HgN/A
3:30 AM77 °FPassing clouds.9 mph74%29.92 "HgN/A
3:00 AM77 °FPassing clouds.8 mph79%29.92 "HgN/A
2:30 AM77 °FPassing clouds.8 mph79%29.92 "HgN/A
2:00 AM77 °FPassing clouds.8 mph79%29.92 "HgN/A
1:30 AM77 °FWarm.7 mph79%29.92 "HgN/A
1:00 AM77 °FPassing clouds.8 mph79%29.92 "HgN/A
12:30 AM77 °FWarm.6 mph79%29.95 "HgN/A
12:00 AM77 °FWarm.5 mph79%29.95 "HgN/A
11:30 PM
Oct 22
77 °FWarm.6 mph79%29.95 "HgN/A
11:00 PM79 °FWarm.6 mph74%29.95 "HgN/A
10:30 PM79 °FWarm.7 mph74%29.98 "HgN/A
10:00 PM79 °FPassing clouds.7 mph70%29.98 "HgN/A
9:30 PM79 °FPassing clouds.8 mph70%29.98 "HgN/A
9:00 PM79 °FWarm.9 mph74%29.98 "HgN/A
8:30 PM79 °FWarm.10 mph74%29.98 "HgN/A
8:00 PM79 °FWarm.9 mph74%29.98 "HgN/A
7:30 PM79 °FWarm.10 mph74%29.95 "HgN/A
7:00 PM79 °FPassing clouds.12 mph74%29.95 "HgN/A
6:30 PM79 °FPassing clouds.14 mph74%29.95 "HgN/A
6:00 PM81 °FPassing clouds.14 mph70%29.95 "HgN/A
Weather by CustomWeather, © 2014

See weather overviewHow to use our weather pages